Voltar ao catálogo

STARLINK-31957

AtivoComunicaçõesVLEO
NORAD 59926·PAYLOAD·🇺🇸 United States

Lançado Jun 1, 2024 de Cape Canaveral Space Force Station

Loading…

Próximas Passagens (próximas 24 horas)

TLE

AtualizadoSource: CelesTrak SupGP

Época: Sep 14, 2026, 20:53 UTC

1 59926C 24106E   26257.87062500 -.00011619  00000+0 -42079-3 0  2575
2 59926  43.0037 343.7597 0001724 269.8447 315.1508 15.27586732    12

Acompanhe STARLINK-31957 em tempo real com AllMySat

Download on the App Store